Regional Weather Roundup
Issued by NWS

Home | Current Version | Previous Version | Graphics & Text | Print | Product List | Glossary On
Versions: 1 2 3 4 5 6 7 8 9 10 11 12 13 14 15 16 17 18 19 20 21 22 23 24 25 26 27 28 29 30 31 32 33 34 35 36 37 38 39 40 41 42 43 44 45 46 47 48 49 50
000
ASUS43 KLOT 241158
RWRIL

ILLINOIS REGIONAL WEATHER ROUNDUP
NATIONAL WEATHER SERVICE CHICAGO/ROMEOVILLE IL
700 AM CDT THU JUL 24 2014

NOTE: "FAIR" INDICATES FEW OR NO CLOUDS BELOW 12,000 FEET WITH NO
SIGNIFICANT WEATHER AND/OR OBSTRUCTIONS TO VISIBILITY.

* THESE STATIONS ARE NOT UNDER NWS QUALITY CONTROL. THEY ALSO MAY NOT
  REPORT WEATHER SUCH AS PRECIPITATION OR FOG.

ILZ001-002-007-009-015-016-024-241300-
NORTHWEST ILLINOIS

CITY           SKY/WX    TMP DP  RH WIND       PRES   REMARKS
MOLINE         PTSUNNY   58  55  90 CALM      30.18R
6HR MIN TEMP:  56; 6HR MAX TEMP:  64;

$$

ILZ003-004-008-010-011-017-018-241300-
NORTH CENTRAL ILLINOIS

CITY           SKY/WX    TMP DP  RH WIND       PRES   REMARKS
ROCKFORD       NOT AVBL
$$

ILZ005-006-012>014-019>023-241300-
NORTHEAST ILLINOIS

CITY           SKY/WX    TMP DP  RH WIND       PRES   REMARKS
CHICAGO-OHARE  MOSUNNY   59  50  72 N7        30.17R
6HR MIN TEMP:  57; 6HR MAX TEMP:  59;

CHICAGO-MIDWAY MOSUNNY   63  55  75 N7        30.16R
6HR MIN TEMP:  60; 6HR MAX TEMP:  65;

AURORA         SUNNY     55  51  86 CALM      30.18R
6HR MIN TEMP:  51; 6HR MAX TEMP:  56;

WAUKEGAN       SUNNY     57  52  83 N5        30.18R
6HR MIN TEMP:  53; 6HR MAX TEMP:  57;

DUPAGE AIRPORT SUNNY     58  53  84 N7        30.17R
6HR MIN TEMP:  52; 6HR MAX TEMP:  58;

WHEELING       SUNNY     59  53  80 N7        30.19R
6HR MIN TEMP:  56; 6HR MAX TEMP:  59;

NORTHERLY ISL    N/A     62  55  77 N7          N/A
$$

LMZ740>746-241300-
SOUTHERN LAKE MICHIGAN

STATION/POSITION SKY/WX   TEMP    WIND        PRES    VSBY  WAVE
                          AIR SEA DIR/SP/G                  HT/PER
                          (F)     (DEG/KT/KT) (MB)    (MI)  (FT/S)
SOUTHERN BUOY              59 60  360/ 12/ 14 1021.2R         2/ 4
WAUKEGAN HARBOR            58     340/  9/ 13 1023.0R
BURNHAM HARBOR             62     360/  8/  9   N/A
CALUMET HARBOR             63     350/  6/  8 1019.8R
MICHIGAN CITY              61      30/ 12/ 13   N/A
MICHIGAN CITY 6N           63 69   50/ 10/ 14   N/A           4/ 2
ST. JOSEPH                 54 49   40/  6/  6   N/A           2/ 2
$$

ILZ025>027-034>036-040-047-049-050-058-095>099-241300-
WEST-CENTRAL ILLINOIS

CITY           SKY/WX    TMP DP  RH WIND       PRES   REMARKS
$$

ILZ028>032-037-038-041>044-048-051>054-059>061-241300-
CENTRAL ILLINOIS

CITY           SKY/WX    TMP DP  RH WIND       PRES   REMARKS
PEORIA         NOT AVBL
SPRINGFIELD    SUNNY     59  52  77 N6        30.16R
6HR MIN TEMP:  57; 6HR MAX TEMP:  61;

TAYLORVILLE    NOT AVBL
$$

ILZ033-039-045-046-055>057-062-063-241300-
EAST-CENTRAL ILLINOIS

CITY           SKY/WX    TMP DP  RH WIND       PRES   REMARKS
CHAMPAIGN      MOSUNNY   59  55  87 N13       30.13R
MATTOON        SUNNY     55  52  89 N7        30.11R
$$

ILZ079-100>102-241300-
SOUTHWEST ILLINOIS

CITY           SKY/WX    TMP DP  RH WIND       PRES   REMARKS
ALTON          SUNNY     59  55  88 N8        30.14R
CAHOKIA*       SUNNY     62  54  74 N6        30.13R
$$

ILZ064>066-069>071-074>076-080>082-084>086-088>090-092>094-241300-
SOUTH-CENTRAL ILLINOIS

CITY           SKY/WX    TMP DP  RH WIND       PRES   REMARKS
CARBONDALE     SUNNY     57  52  83 N6        30.09R
6HR MIN TEMP:  55; 6HR MAX TEMP:  65;

MARION         SUNNY     59  54  82 NW6       30.10R
$$

ILZ067-068-072-073-078-083-087-091-241300-
SOUTHEAST ILLINOIS

CITY           SKY/WX    TMP DP  RH WIND       PRES   REMARKS
ROBINSON*      SUNNY     58  56  94 CALM      30.09R
$$

ABBREVIATIONS USED IN REMARKS
   TC - TEMPERATURE IN CELSIUS
  WCI - WIND CHILL INDEX
   HX - HEAT INDEX
  VSB - VISIBILITY
$$



USA.gov is the U.S. government's official web portal to all federal, state and local government web resources and services.